sat.trackr.live / text

‹ back to catalog

STARLINK-31143

NORAD 58770 · 2024-011F

PAYLOAD ACTIVE UNKNOWN

§ Identity

Operator
Country
US
Launch date
2024-01-14
Launch site
AFWTR
Launch vehicle
Mass (kg)
RCS (m²)

Purposes: comms

External: N2YO · Heavens-Above · Gunter

§ Orbital elements

Epoch: 2026-05-25T01:19:20.957088Z

Period
94.11 min
Inclination
53.1611°
Eccentricity
0.0001264
Mean motion
15.30194556 rev/d
Perigee alt
474.4 km
Apogee alt
476.1 km
Semi-major
6,853.4 km
B*
5.6118e-5
RAAN
18.8622°
Arg perigee
83.9713°
Mean anomaly
276.1432°
Rev number
13,196

§ Raw data

STARLINK-311431 58770U 24011F   26145.05510367  .00001303  00000+0  56118-4 0  99912 58770  53.1611  18.8622 0001264  83.9713 276.1432 15.30194556131961

JSON: /api/v1/satellites/58770 · /tle

For live sub-satellite position, see the globe view (requires WebGL).

§ Visibility from observer

Set your observer location to see the next 7 days of passes ≥ 10°. The values pass through the URL so the page stays shareable.

No JS? Fill the form by hand. The geolocation button needs JavaScript.